Simultaneous Nadir Overpasses (SNOs) Predictions

Prediction of SNOs between GOES-15 and FY3D Satellite Orbit:

Table of predicted SNOs for the next 14.0 days since TLE Epoch: 10/24/2020
Index Date Time (GOES-15) GOES-15 Lat,Lon FY3D Lat,Lon Distance(km) Time Diff (sec)
1 10/25/2020 10:18:38 -0.13,-128.24 0.54,-131.18 335.45 80
2 10/26/2020 09:57:02 -0.14,-128.22 -0.49,-126.60 184.53 80
3 10/27/2020 22:21:20 0.12,-128.18 -0.69,-131.82 415.01 80
4 10/28/2020 21:59:44 0.13,-128.16 0.35,-127.24 104.61 80
5 10/30/2020 10:23:52 -0.11,-128.13 0.85,-132.42 489.01 80
6 10/31/2020 10:02:15 -0.12,-128.11 -0.18,-127.84 30.62 80
7 11/02/2020 22:07:36 0.11,-128.04 -0.01,-128.47 50.27 80
8 11/03/2020 21:46:00 0.12,-128.01 1.02,-123.89 468.51 80
9 11/05/2020 10:10:09 -0.10,-127.97 0.13,-129.08 126.87 80
10 11/06/2020 09:48:33 -0.12,-127.93 -0.91,-124.50 391.62 80
